Simultaneous Nadir Overpasses (SNOs) Predictions

Prediction of SNOs between GOES-17 and TERRA Satellite Orbit:

Table of predicted SNOs for the next 14.0 days since TLE Epoch: 12/9/2023
Index Date Time (GOES-17) GOES-17 Lat,Lon TERRA Lat,Lon Distance(km) Time Diff (sec)
1 12/10/2023 16:53:56 -0.01,-104.68 -0.19,-103.79 101.38 80
2 12/11/2023 05:14:09 0.01,-104.67 -0.83,-108.70 457.84 80
3 12/13/2023 04:54:42 0.01,-104.67 -0.01,-104.65 3.45 80
4 12/15/2023 04:37:56 0.01,-104.66 0.88,-100.61 461.64 80
5 12/15/2023 16:58:01 -0.01,-104.67 0.15,-105.49 92.43 80
6 12/17/2023 16:43:54 0.01,-104.67 -0.70,-101.44 368.05 80
7 12/18/2023 05:04:06 -0.01,-104.66 -0.38,-106.34 190.86 80
8 12/20/2023 04:44:39 -0.02,-104.66 0.48,-102.29 269.85 80
9 12/20/2023 17:04:44 0.02,-104.67 0.53,-107.17 284.44 80
10 12/22/2023 16:50:36 0.02,-104.67 -0.30,-103.11 176.35 80
